Location: Newark
(7.1028°S, 35.3258°W)
Time: 10:57:42
(UTC+00:00)

Hubble Space Telescope - Pass Details

Date: 23 January 2020
Orbit: 536 x 540 km, 28.5° (Epoch: 25 February)

Event Time Altitude Azimuth Distance (km) Brightness Sun altitude
Exits shadow 06:37:33 50° 181° (S) 680 1.3 -24.2°
Maximum altitude 06:38:03 54° 152° (SSE) 648 1.3 -24.1°
Drops below altitude 10° 06:42:05 10° 73° (ENE) 1,777 4.0 -23.2°
Sets 06:44:22 0° 69° (ENE) 2,666 5.0 -22.7°
